Location: Isola Pescaroli
(45.0500°N, 10.1667°E)
Time: 01:43:48
(UTC+00:00)

SL-4 R/B - Pass Details

Date: 15 June 2021
Orbit: 428 x 662 km, 51.6° (Epoch: 29 July)

Event Time Altitude Azimuth Distance (km) Brightness Sun altitude
Exits shadow 00:20:15 56° 260° (W) 578 1.9 -20.3°
Maximum altitude 00:20:57 78° 331° (NNW) 495 1.7 -20.2°
Drops below altitude 10° 00:24:33 10° 59° (ENE) 1,605 5.0 -20.1°
Sets 00:26:38 0° 61° (ENE) 2,453 6.0 -20.0°
